TimeCET,TemperatureF,Dew PointF,Humidity,Sea Level PressureIn,VisibilityMPH,Wind Direction,Wind SpeedMPH,Gust SpeedMPH,PrecipitationIn,Events,Conditions,WindDirDegrees,DateUTC
12:00 AM,51.8,50.0,94,30.21,6.2,NNE,1.2,-,N/A,,Partly Cloudy,30,2012-11-23 23:00:00
12:30 AM,51.8,50.0,94,30.18,6.2,NE,1.2,-,N/A,,Partly Cloudy,40,2012-11-23 23:30:00
1:00 AM,50,48,91,30.20,9,Calm,Calm,,,,Scattered Clouds,,2012-11-24 00:00:00
1:00 AM,51.8,51.8,100,30.18,6.2,Variable,1.2,-,N/A,,Partly Cloudy,0,2012-11-24 00:00:00
1:30 AM,51.8,50.0,94,30.18,6.2,Variable,1.2,-,N/A,,Partly Cloudy,0,2012-11-24 00:30:00
2:00 AM,50.0,50.0,100,30.18,5.0,Variable,1.2,-,N/A,,Partly Cloudy,0,2012-11-24 01:00:00
2:30 AM,50.0,50.0,100,30.18,5.0,NNE,1.2,-,N/A,,Partly Cloudy,20,2012-11-24 01:30:00
3:00 AM,51.8,51.8,100,30.18,6.2,Calm,Calm,-,N/A,,Partly Cloudy,0,2012-11-24 02:00:00
3:30 AM,53.6,53.6,100,30.15,6.2,NE,2.3,-,N/A,,Partly Cloudy,50,2012-11-24 02:30:00
4:00 AM,53.6,53.6,100,30.15,6.2,Variable,1.2,-,N/A,,Partly Cloudy,0,2012-11-24 03:00:00
4:30 AM,53.6,53.6,100,30.15,6.2,NE,2.3,-,N/A,,Partly Cloudy,40,2012-11-24 03:30:00
5:00 AM,51.8,51.8,100,30.15,6.2,Variable,1.2,-,N/A,,Partly Cloudy,0,2012-11-24 04:00:00
6:00 AM,50.0,50.0,100,30.15,6.2,NE,2.3,-,N/A,,Partly Cloudy,50,2012-11-24 05:00:00
6:30 AM,50.0,50.0,100,30.15,6.2,NE,1.2,-,N/A,,Partly Cloudy,40,2012-11-24 05:30:00
7:00 AM,49,47,90,30.16,9,North,1.2,,,,Scattered Clouds,0,2012-11-24 06:00:00
7:00 AM,50.0,50.0,100,30.15,6.2,Variable,1.2,-,N/A,,Partly Cloudy,0,2012-11-24 06:00:00
7:30 AM,50.0,50.0,100,30.15,6.2,NNE,1.2,-,N/A,,Partly Cloudy,20,2012-11-24 06:30:00
8:00 AM,50.0,50.0,100,30.15,2.5,Calm,Calm,-,N/A,,Partly Cloudy,0,2012-11-24 07:00:00
8:30 AM,53.6,51.8,94,30.15,3.7,North,2.3,-,N/A,,Partly Cloudy,10,2012-11-24 07:30:00
9:00 AM,55.4,55.4,100,30.15,4.3,ENE,3.5,-,N/A,,Partly Cloudy,70,2012-11-24 08:00:00
9:30 AM,57.2,57.2,100,30.15,6.2,Variable,2.3,-,N/A,,Partly Cloudy,0,2012-11-24 08:30:00
10:00 AM,59.0,59.0,100,30.15,6.2,NE,2.3,-,N/A,,Partly Cloudy,40,2012-11-24 09:00:00
10:30 AM,64.4,60.8,88,30.18,6.2,Calm,Calm,-,N/A,,Partly Cloudy,0,2012-11-24 09:30:00
11:00 AM,66.2,59.0,78,30.18,6.2,South,1.2,-,N/A,,Scattered Clouds,180,2012-11-24 10:00:00
11:30 AM,64.4,57.2,77,30.15,6.2,Variable,1.2,-,N/A,,Scattered Clouds,0,2012-11-24 10:30:00
12:00 PM,66.2,57.2,73,30.15,6.2,Variable,1.2,-,N/A,,Scattered Clouds,0,2012-11-24 11:00:00
12:30 PM,66.2,57.2,73,30.15,6.2,WSW,3.5,-,N/A,,Scattered Clouds,240,2012-11-24 11:30:00
1:00 PM,67,54,54,30.15,12,SSW,5.8,,,,Partly Cloudy,210,2012-11-24 12:00:00
1:00 PM,68.0,59.0,73,30.12,6.2,SSW,4.6,-,N/A,,Scattered Clouds,210,2012-11-24 12:00:00
1:30 PM,66.2,57.2,73,30.12,6.2,SW,8.1,-,N/A,,Scattered Clouds,230,2012-11-24 12:30:00
2:00 PM,66.2,59.0,78,30.12,6.2,SW,9.2,-,N/A,,Partly Cloudy,220,2012-11-24 13:00:00
2:30 PM,66.2,57.2,73,30.12,6.2,SSW,9.2,-,N/A,,Partly Cloudy,210,2012-11-24 13:30:00
3:00 PM,66.2,59.0,78,30.12,6.2,SSW,8.1,-,N/A,,Partly Cloudy,210,2012-11-24 14:00:00
3:30 PM,66.2,57.2,73,30.09,6.2,SW,8.1,-,N/A,,Partly Cloudy,220,2012-11-24 14:30:00
4:00 PM,66.2,57.2,73,30.09,6.2,SSW,5.8,-,N/A,,Partly Cloudy,210,2012-11-24 15:00:00
4:30 PM,66.2,57.2,73,30.09,6.2,SSW,4.6,-,N/A,,Partly Cloudy,210,2012-11-24 15:30:00
5:00 PM,64.4,55.4,73,30.09,6.2,SW,3.5,-,N/A,,Partly Cloudy,230,2012-11-24 16:00:00
5:30 PM,62.6,55.4,77,30.12,6.2,WSW,1.2,-,N/A,,Partly Cloudy,240,2012-11-24 16:30:00
6:00 PM,60.8,55.4,82,30.12,6.2,Variable,1.2,-,N/A,,Scattered Clouds,0,2012-11-24 17:00:00
6:30 PM,57.2,55.4,94,30.12,6.2,SE,2.3,-,N/A,,Scattered Clouds,130,2012-11-24 17:30:00
7:00 PM,56,51,80,30.13,11,East,2.3,,,,Scattered Clouds,80,2012-11-24 18:00:00
7:00 PM,57.2,53.6,88,30.12,6.2,ENE,1.2,-,N/A,,Partly Cloudy,60,2012-11-24 18:00:00
7:30 PM,55.4,53.6,94,30.12,6.2,NE,1.2,-,N/A,,Partly Cloudy,50,2012-11-24 18:30:00
8:00 PM,55.4,53.6,94,30.12,6.2,Variable,1.2,-,N/A,,Partly Cloudy,0,2012-11-24 19:00:00
8:30 PM,53.6,51.8,94,30.12,6.2,ENE,1.2,-,N/A,,Partly Cloudy,60,2012-11-24 19:30:00
9:00 PM,53.6,51.8,94,30.15,6.2,NE,1.2,-,N/A,,Partly Cloudy,50,2012-11-24 20:00:00
9:30 PM,51.8,51.8,100,30.15,6.2,Variable,1.2,-,N/A,,Partly Cloudy,0,2012-11-24 20:30:00
10:00 PM,53.6,51.8,94,30.15,6.2,Variable,1.2,-,N/A,,Partly Cloudy,0,2012-11-24 21:00:00
10:30 PM,51.8,51.8,100,30.15,6.2,Calm,Calm,-,N/A,,Partly Cloudy,0,2012-11-24 21:30:00
11:00 PM,51.8,50.0,94,30.15,6.2,Calm,Calm,-,N/A,,Partly Cloudy,0,2012-11-24 22:00:00
11:30 PM,51.8,50.0,94,30.15,6.2,Variable,1.2,-,N/A,,Partly Cloudy,0,2012-11-24 22:30:00